Simultaneous Nadir Overpasses (SNOs) Predictions

Prediction of SNOs between GOES-16 and NOAA-19 Satellite Orbit:

Table of predicted SNOs for the next 14.0 days since TLE Epoch: 3/23/2017
Index Date Time (GOES-16) GOES-16 Lat,Lon NOAA-19 Lat,Lon Distance(km) Time Diff (sec)
1 03/24/2017 21:12:05 -0.01, -89.48 -0.45, -91.26 204.17 80
2 03/25/2017 21:03:19 -0.01, -89.48 0.20, -88.48 113.58 80
3 03/26/2017 20:51:54 -0.01, -89.48 0.86, -85.70 431.35 80
4 03/28/2017 09:24:50 0.01, -89.50 0.98, -93.60 468.39 80
5 03/29/2017 09:13:25 0.01, -89.51 0.30, -90.83 150.54 80
6 03/30/2017 08:59:18 0.01, -89.51 -0.32, -88.04 167.32 80
7 03/31/2017 08:47:53 0.01, -89.51 -1.00, -85.26 485.19 80
8 04/01/2017 21:21:05 -0.01, -89.49 -0.85, -93.23 426.14 80
9 04/02/2017 21:09:39 -0.01, -89.50 -0.24, -90.44 108.13 80
10 04/03/2017 21:00:53 -0.00, -89.50 0.43, -87.66 210.01 80
11 04/06/2017 09:22:22 0.01, -89.54 0.75, -92.78 369.41 80




NCC Satellite Simultaneous Nadir Overpasses (SNOs) Prediction Service
